Regional Weather Roundup
Issued by NWS

Home | Current Version | Previous Version | Text Only | Print | Product List | Glossary On
Versions: 1 2 3 4 5 6 7 8 9 10 11 12 13 14 15 16 17 18 19 20 21 22 23 24 25 26 27 28 29 30 31 32 33 34 35 36 37 38 39 40 41 42 43 44 45 46 47 48 49 50
000
ASUS46 KSEW 070910
RWRWA

WASHINGTON REGIONAL WEATHER ROUNDUP
NATIONAL WEATHER SERVICE SEATTLE WA
100 AM PST SUN FEB 07 2016

NOTE:"FAIR" INDICATES FEW OR NO CLOUDS BELOW 12,000 FEET WITH NO
SIGNIFICANT WEATHER AND/OR OBSTRUCTIONS TO VISIBILITY.

WAZ505-507>509-071000-
SEATTLE, TACOMA, EVERETT, AND VICINITY

CITY           SKY/WX    TMP DP  RH WIND       PRES   REMARKS
EVERETT        PTCLDY    39  34  82 E7        30.49S
BOEING FIELD   PTCLDY    39  37  92 CALM      30.50F
RENTON         PTCLDY    39  35  86 CALM      30.49F
SEATAC AIRPORT PTCLDY    39  34  82 CALM      30.48F
JBLM-MCCHORD   MOCLDY    34  34 100 W2        30.49R
PUYALLUP       FAIR      34  34 100 CALM      30.48S
BREMERTON      PTCLDY    36  36 100 CALM      30.53S
JBLM-FT LEWIS  MOCLDY    34  34 100 MISG      30.48S
TACOMA NARROWS MOCLDY    40  39  97 CALM      30.48F FOG
$$

WAZ001-503-506-510-514-515-071000-
NORTH INTERIOR

CITY           SKY/WX    TMP DP  RH WIND       PRES   REMARKS
BELLINGHAM     PTCLDY    36  34  92 N3        30.50F
FRIDAY HARBOR  CLEAR     38  36  92 CALM      30.52R
EASTSOUND      PTCLDY    41  39  93 NE5       30.50R
PORT ANGELES   MOCLDY    37  35  92 CALM      30.50S
EDIZ HOOK      FAIR      41  38  90 CALM      30.51S
PORT TOWNSEND  FOG       34  34 100 CALM      30.51R VSB 1/4
NAS WHIDBEY    PTCLDY    38  37  97 CALM      30.55R
ARLINGTON      PTCLDY    32  27  80 CALM      30.52F
BURLINGTON     PTCLDY    39  36  87 NE8       30.52R
$$

WAZ020-022-039-040-504-511-512-071000-
SOUTHWEST INTERIOR

CITY           SKY/WX    TMP DP  RH WIND       PRES   REMARKS
SHELTON        FOG       33  32  96 W3        30.48R VSB 1/4
OLYMPIA        FOG       37  36  96 CALM      30.50R VSB 1/4
CHEHALIS       FOG       39  39 100 CALM      30.49S VSB 1/4
KELSO          MOCLDY    37  34  87 CALM      30.51S
VANCOUVER      CLOUDY    44  40  85 CALM      30.48R
SCAPPOOSE, OR  CLOUDY    41  39  93 CALM      30.48R
PORTLAND, OR   CLOUDY    44  40  85 NW3       30.49R
$$

WAZ021-516-517-071000-
WASHINGTON COAST

CITY           SKY/WX    TMP DP  RH WIND       PRES   REMARKS
FORKS          MOCLDY    40  37  89 E6        30.46S
HOQUIAM        MOCLDY    42  41  96 E9        30.46S
ASTORIA, OR    CLOUDY    41  39  93 SE3       30.44R
$$

WAZ019-023-024-040-518-519-071000-
CASCADE MOUNTAINS AND COLUMBIA GORGE

CITY           SKY/WX    TMP DP  RH WIND       PRES   REMARKS
STAMPEDE PASS  NOT AVBL
TROUTDALE, OR  CLOUDY    47  38  71 E6        30.47F
THE DALLES, OR CLEAR     36  32  85 S3        30.49R
$$

WAZ026-027-041>044-520-521-071000-
EAST SLOPES

CITY           SKY/WX    TMP DP  RH WIND       PRES   REMARKS
OMAK           CLEAR     22  19  89 N8        30.50F
WENATCHEE      CLEAR     32  28  85 W8        30.49R
ELLENSBURG     CLEAR     30  25  81 CALM      30.46R
YAKIMA         CLEAR     33  25  72 W9        30.49R
$$

WAZ028-034-035-071000-
COLUMBIA BASIN

CITY           SKY/WX    TMP DP  RH WIND       PRES   REMARKS
EPHRATA        CLEAR     30  27  88 NW6       30.48R
MOSES LAKE     CLEAR     28  26  92 N6        30.49R
PASCO          CLEAR     27  25  92 N5        30.51S
HERMISTON, OR  CLEAR     31  28  89 SE5       30.48S
$$

WAZ036>038-071000-
NORTHEAST WASHINGTON

CITY           SKY/WX    TMP DP  RH WIND       PRES   REMARKS
SPOKANE GEIGER CLEAR     32  29  88 S8        30.45S
SPOKANE FELTS  CLEAR     28  26  92 NE3       30.48S
FAIRCHILD AFB  CLEAR     29  29 100 S3        30.44S
COEURDALENE,ID CLEAR     28  28 100 SE3       30.45S
DEER PARK      CLEAR     22  20  92 NE5       30.47S
$$

WAZ029>033-071000-
SOUTHEAST WASHINGTON

CITY           SKY/WX    TMP DP  RH WIND       PRES   REMARKS
PULLMAN        CLEAR     32  28  85 NE6       30.48S
LEWISTON, ID   CLEAR     32  26  78 SE3       30.51R
WALLA WALLA    CLEAR     37  28  70 E7        30.46F
PENDLETON, OR  PTCLDY    35  31  85 SE7       30.47S
$$



USA.gov is the U.S. government's official web portal to all federal, state and local government web resources and services.